Printer-friendly version

IAU Minor Planet Center

Minor Planet Center

MPEC 2001-F06: 2001 EB16

The following Minor Planet Electronic Circular may be linked-to from your own Web pages, but must not otherwise be redistributed electronically.


Read MPEC 2001-F05 Read MPEC 2001-F07


M.P.E.C. 2001-F06                                Issued 2001 Mar. 18, 21:18 UT

     The Minor Planet Electronic Circulars contain information on unusual
         minor planets and routine data on comets.  They are published
   on behalf of Commission 20 of the International Astronomical Union by the
          Minor Planet Center, Smithsonian Astrophysical Observatory,
                          Cambridge, MA 02138, U.S.A.

             Prepared using the Tamkin Foundation Computer Network

                              MPC@CFA.HARVARD.EDU
          URL http://cfa-www.harvard.edu/iau/mpc.html  ISSN 1523-6714

                                   2001 EB16

Observations:
     K01E16B* C2001 03 14.11504 06 39 20.01 +37 27 07.2          18.0        704
     K01E16B  C2001 03 14.12857 06 39 22.00 +37 28 24.3          17.7        704
     K01E16B  C2001 03 14.14191 06 39 24.10 +37 29 41.6          17.7        704
     K01E16B  C2001 03 14.15481 06 39 26.14 +37 30 55.6          18.0        704
     K01E16B  C2001 03 14.16793 06 39 28.18 +37 32 10.1          17.5        704
     K01E16B  C2001 03 15.10518 06 42 04.97 +38 59 55.6          17.1        704
     K01E16B  C2001 03 15.11810 06 42 06.99 +39 01 06.0          17.8        704
     K01E16B  C2001 03 15.13100 06 42 08.99 +39 02 16.8          18.0        704
     K01E16B  C2001 03 15.14386 06 42 11.05 +39 03 26.9          18.1        704
     K01E16B  C2001 03 15.15674 06 42 13.14 +39 04 36.9          18.4        704
     K01E16B  C2001 03 15.79580 06 44 01.98 +40 01 48.7                      557
     K01E16B  C2001 03 15.79681 06 44 02.16 +40 01 54.0                      557
     K01E16B  C2001 03 15.79781 06 44 02.37 +40 01 59.7                      557
     K01E16B  C2001 03 15.87812 06 44 15.49 +40 09 08.6                      176
     K01E16B  C2001 03 15.88864 06 44 17.33 +40 10 02.7                      176
     K01E16B  C2001 03 15.89039 06 44 17.64 +40 10 11.7                      176
     K01E16B  C2001 03 16.11725 06 44 57.26 +40 30 00.2          18.5        704
     K01E16B  C2001 03 16.12950 06 44 59.24 +40 31 04.4          18.6        704
     K01E16B  C2001 03 16.12992 06 44 59.34 +40 31 06.3          18.5        704
     K01E16B  C2001 03 16.14229 06 45 01.31 +40 32 10.1          18.4        704
     K01E16B  C2001 03 16.14261 06 45 01.13 +40 32 12.0          18.1        704
     K01E16B  C2001 03 16.15539 06 45 03.44 +40 33 17.8          18.9        704
     K01E16B  C2001 03 16.16803 06 45 05.53 +40 34 23.8          18.4        704
     K01E16B  C2001 03 16.16933 06 45 05.77 +40 34 29.9          18.0        704
     K01E16B 5C2001 03 16.19620 06 45 10.36 +40 36 49.3                      675
     K01E16B 5C2001 03 16.19894 06 45 10.81 +40 37 03.0                      675
     K01E16B  C2001 03 16.20538 06 45 11.79 +40 37 36.0          16.9 R      854
     K01E16B  C2001 03 16.20634 06 45 11.94 +40 37 40.1                      854
     K01E16B  C2001 03 16.20730 06 45 12.14 +40 37 46.1                      854
     K01E16B  C2001 03 16.75956 06 46 48.94 +41 24 40.4          17.2 R      046
     K01E16B  C2001 03 16.76037 06 46 49.04 +41 24 44.7                      046
     K01E16B  C2001 03 16.76101 06 46 49.22 +41 24 47.9                      046
     K01E16B  C2001 03 16.76186 06 46 49.29 +41 24 50.9          17.0 R      046
     K01E16B  C2001 03 16.76269 06 46 49.43 +41 24 55.6                      046
     K01E16B  C2001 03 16.76388 06 46 49.63 +41 25 02.2          17.5 R      046
     K01E16B  C2001 03 16.76600 06 46 49.92 +41 25 12.8          17.8 R      118
     K01E16B  C2001 03 16.76795 06 46 50.24 +41 25 22.2                      118
     K01E16B  C2001 03 16.76897 06 46 50.42 +41 25 27.2                      118
     K01E16B  C2001 03 17.11039 06 47 50.29 +41 53 53.4          17.7        704
     K01E16B  C2001 03 17.11058 06 47 50.28 +41 53 54.2          17.8        704
     K01E16B  C2001 03 17.12320 06 47 52.42 +41 54 56.1          17.7        704
     K01E16B  C2001 03 17.12339 06 47 52.44 +41 54 57.5          18.4        704
     K01E16B  C2001 03 17.13651 06 47 54.65 +41 56 02.5          17.7        704
     K01E16B  C2001 03 17.13660 06 47 54.65 +41 56 02.4          18.4        704
     K01E16B  C2001 03 17.14936 06 47 56.78 +41 57 05.3          17.9        704
     K01E16B  C2001 03 17.14941 06 47 56.77 +41 57 05.9          18.6        704
     K01E16B  C2001 03 17.16219 06 47 58.94 +41 58 07.7          18.1        704
     K01E16B  C2001 03 17.16220 06 47 58.91 +41 58 08.1          18.4        704
     K01E16B  C2001 03 17.18156 06 48 02.46 +41 59 42.2                      670
     K01E16B  C2001 03 17.25787 06 48 15.30 +42 05 55.2                      670
     K01E16B  C2001 03 18.00799 06 50 29.14 +43 06 14.4          20.2 V      859
     K01E16B  C2001 03 18.01035 06 50 29.61 +43 06 25.2          20.8 V      859
     K01E16B  C2001 03 18.01271 06 50 29.96 +43 06 32.8          20.0 V      859
     K01E16B  C2001 03 18.10118 06 50 46.73 +43 13 17.1          18.6 R      854
     K01E16B  C2001 03 18.10213 06 50 46.94 +43 13 21.7          18.7 R      854
     K01E16B  C2001 03 18.10308 06 50 47.09 +43 13 26.7                      854
     K01E16B 4C2001 03 18.20036 06 51 03.76 +43 20 59.9                      673
     K01E16B 4C2001 03 18.20919 06 51 05.24 +43 21 41.3                      673
     K01E16B  C2001 03 18.77212 06 52 48.11 +44 04 38.3                      557
     K01E16B  C2001 03 18.77436 06 52 48.54 +44 04 48.6                      557
     K01E16B  C2001 03 18.77549 06 52 48.73 +44 04 53.9                      557

Observer details:
046 Klet.  Observers J. Ticha, M. Tichy.  0.57-m f/5.2 reflector + CCD.
118 Modra.  Observers A. Galad, J. Toth.  0.6-m f/5.5 reflector + CCD.
176 Observatori Astronomic de Consell.  Observers A. Lopez, R. Pacheco.  0.2-m
    f/3.3 Schmidt-Cassegrain + CCD
557 Ondrejov.  Observer L. Sarounova.  0.65-m f/3.6 reflector + CCD.
670 Camarillo.  Observer J. E. Rogers.  0.30-m f/6.7 Helin Telescope + CCD.
673 Table Mountain Observatory, Wrightwood.  Observers D. Esqueda, A. Esqueda,
    T. Ha.  Measurer M. Hicks.  0.6-m reflector + CCD.
675 Palomar Mountain.  Observers P. Weissman, M. Hicks, S. Lowry,
    A. Chamberlin.  5-m reflector + CCD.
704 Lincoln Laboratory ETS, New Mexico.  Observers M. Blythe, F. Shelly,
    M. Bezpalko, R. Huber, L. Manguso, S. Adams.  Measurers J. Stuart,
    R. Sayer, J. B. Evans, H. Viggh.  1.0-m f/2.15 reflector + CCD.
854 Sabino Canyon Observatory, Tucson.  Observer J. E. McGaha.  0.30-m f/6.1
    Schmidt-Cassegrain + CCD.
859 Wykrota Observatory-CEAMIG.  Observers C. Jacques, A. Campos, L. Duczmal,
    E. Pimentel.  0.3-m f/3.3 Schmidt-Cassegrain + CCD.

Orbital elements:
2001 EB16
Epoch 2001 Mar. 12.0 TT = JDT 2451980.5                 Williams
M   8.72958              (2000.0)            P               Q
n   0.42585021     Peri.  345.63719     -0.75273539     -0.55110522
a   1.7497049      Node   149.98746     +0.65238851     -0.69774248
e   0.3504865      Incl.   46.04857     +0.08819679     +0.45764447
P   2.31           H   18.3           G   0.15
From 59 observations 2001 Mar. 14-18.

Ephemeris:
2001 EB16                a,e,i = 1.75, 0.35, 46                  q = 1.1365
Date    TT    R. A. (2000) Decl.     Delta      r     Elong.  Phase     V
2001 03 12    06 33.67   +33 52.4    0.378    1.153   105.4    56.2    18.5
2001 03 17    06 47.51   +41 44.7    0.426    1.162   102.2    56.8    18.8
2001 03 22    07 02.94   +47 47.8    0.479    1.173    99.2    57.0    19.1
2001 03 27    07 19.91   +52 24.9    0.536    1.185    96.5    56.8    19.4
2001 04 01    07 38.34   +55 55.4    0.594    1.199    94.1    56.2    19.6
2001 04 06    07 58.05   +58 33.9    0.653    1.214    92.0    55.5    19.8
2001 04 11    08 18.80   +60 30.9    0.712    1.231    90.1    54.5    20.0

2001 04 21    09 02.26   +62 48.8    0.828    1.268    87.0    52.3    20.3
2001 05 01    09 46.31   +63 29.3    0.937    1.308    84.5    50.0    20.6
2001 05 11    10 28.60   +62 57.3    1.040    1.352    82.5    47.8    20.8
2001 05 21    11 07.64   +61 29.1    1.135    1.398    81.0    45.7    21.0
2001 05 31    11 43.03   +59 17.0    1.223    1.445    79.9    43.7    21.2
2001 06 10    12 14.94   +56 30.4    1.305    1.493    79.0    41.9    21.4
2001 06 20    12 43.87   +53 16.2    1.382    1.542    78.4    40.2    21.5
2001 06 30    13 10.43   +49 40.2    1.457    1.591    77.8    38.7    21.7
2001 07 10    13 35.15   +45 47.9    1.529    1.639    77.2    37.2    21.8
2001 07 20    13 58.47   +41 44.0    1.603    1.686    76.5    35.9    21.9
2001 07 30    14 20.78   +37 33.4    1.678    1.733    75.7    34.6    22.0

Gareth V. Williams           (C) Copyright 2001 MPC           M.P.E.C. 2001-F06

Read MPEC 2001-F05 Read MPEC 2001-F07


Our Web policy. Index to the CBAT/MPC/ICQ pages.


Valid HTML 4.01!